AYN1311 UAAA-UACC

Flight info

Callsign AYN1311
Flight time 1h 19m
Altitude 32000
Route ETEDA W333 BANOS BANOS1G
Aircraft A320/M-SDE3FGHIRWY/LB1

Departure

Time 2026-04-26 18:24
Airport Almaty International Airport (UAAA)

Arrival

Time 2026-04-26 19:43
Airport Nursultan Nazarbayev International Airport (UACC)
Time Latitude Longitude Altitude Speed Heading
2026-04-26 17:59 43.34729 77.01275 2229 ft 0 kts 245°
2026-04-26 18:15 43.34734 77.01291 2224 ft 2 kts 245°
2026-04-26 18:16 43.34746 77.01326 2225 ft 5 kts 240°
2026-04-26 18:16 43.34787 77.01403 2224 ft 5 kts 237°
2026-04-26 18:16 43.34796 77.01423 2225 ft 0 kts 244°
2026-04-26 18:19 43.34795 77.01423 2225 ft 1 kts 243°
2026-04-26 18:19 43.34784 77.01405 2228 ft 5 kts 221°
2026-04-26 18:19 43.34740 77.01402 2228 ft 9 kts 160°
2026-04-26 18:20 43.34672 77.01444 2227 ft 13 kts 156°
2026-04-26 18:20 43.34573 77.01473 2227 ft 16 kts 164°
2026-04-26 18:20 43.34457 77.01545 2226 ft 20 kts 155°
2026-04-26 18:20 43.34413 77.01573 2228 ft 21 kts 155°
2026-04-26 18:21 43.34248 77.01676 2228 ft 0 kts 156°
2026-04-26 18:22 43.34226 77.01689 2229 ft 7 kts 154°
2026-04-26 18:23 43.34168 77.01766 2230 ft 17 kts 107°
2026-04-26 18:23 43.34224 77.01944 2226 ft 26 kts 56°
2026-04-26 18:23 43.34454 77.02412 2232 ft 98 kts 56°
2026-04-26 18:23 43.34957 77.03456 2232 ft 161 kts 58°
2026-04-26 18:24 43.35646 77.04888 2509 ft 190 kts 57°
2026-04-26 18:24 43.36391 77.06382 3071 ft 192 kts 57°
2026-04-26 18:24 43.37214 77.07982 3310 ft 216 kts 54°
2026-04-26 18:24 43.38141 77.09742 3578 ft 239 kts 53°
2026-04-26 18:25 43.39239 77.11602 3851 ft 261 kts 38°
2026-04-26 18:25 43.40885 77.12758 4230 ft 273 kts
2026-04-26 18:25 43.42762 77.12631 4917 ft 270 kts 337°
2026-04-26 18:25 43.44403 77.11483 5663 ft 270 kts 327°
2026-04-26 18:26 43.46090 77.10307 6447 ft 274 kts 332°
2026-04-26 18:26 43.47844 77.09218 7188 ft 278 kts 334°
2026-04-26 18:26 43.49626 77.08148 7909 ft 281 kts 334°
2026-04-26 18:26 43.51435 77.07056 8647 ft 285 kts 334°
2026-04-26 18:27 43.53255 77.05936 9392 ft 289 kts 334°
2026-04-26 18:27 43.55100 77.04781 10106 ft 293 kts 334°
2026-04-26 18:27 43.57016 77.03563 10338 ft 315 kts 333°
2026-04-26 18:27 43.59081 77.02239 10466 ft 338 kts 333°
2026-04-26 18:28 43.60515 77.01318 10549 ft 352 kts 333°
2026-04-26 18:28 43.62804 76.99848 10672 ft 372 kts 334°
2026-04-26 18:28 43.65205 76.98303 10785 ft 390 kts 334°
2026-04-26 18:28 43.67710 76.96689 11104 ft 400 kts 334°
2026-04-26 18:29 43.70246 76.95058 11627 ft 404 kts 333°
2026-04-26 18:29 43.72804 76.93413 12175 ft 407 kts 333°
2026-04-26 18:29 43.75386 76.91749 12727 ft 410 kts 333°
2026-04-26 18:29 43.77978 76.90077 13291 ft 413 kts 333°
2026-04-26 18:30 43.80595 76.88388 13849 ft 415 kts 333°
2026-04-26 18:30 43.83219 76.86693 14339 ft 418 kts 333°
2026-04-26 18:30 43.85859 76.84987 14820 ft 420 kts 333°
2026-04-26 18:30 43.88520 76.83263 15293 ft 423 kts 333°
2026-04-26 18:31 43.91188 76.81531 15765 ft 425 kts 333°
2026-04-26 18:31 43.93869 76.79786 16225 ft 427 kts 333°
2026-04-26 18:31 43.96576 76.78024 16688 ft 430 kts 333°
2026-04-26 18:31 43.99299 76.76248 17141 ft 433 kts 333°
2026-04-26 18:32 44.01597 76.74749 17518 ft 435 kts 333°
2026-04-26 18:32 44.04344 76.72956 17959 ft 438 kts 333°
2026-04-26 18:32 44.07116 76.71145 18400 ft 441 kts 333°
2026-04-26 18:32 44.09897 76.69330 18769 ft 443 kts 333°
2026-04-26 18:33 44.12704 76.67497 19161 ft 446 kts 333°
2026-04-26 18:33 44.15517 76.65657 19539 ft 449 kts 333°
2026-04-26 18:33 44.18318 76.63823 19919 ft 451 kts 333°
2026-04-26 18:33 44.21200 76.61934 20284 ft 454 kts 332°
2026-04-26 18:34 44.24032 76.60075 20635 ft 456 kts 332°
2026-04-26 18:34 44.26906 76.58183 20985 ft 458 kts 332°
2026-04-26 18:34 44.29794 76.56278 21309 ft 461 kts 332°
2026-04-26 18:34 44.32701 76.54357 21707 ft 461 kts 332°
2026-04-26 18:35 44.35601 76.52471 22169 ft 460 kts 333°
2026-04-26 18:35 44.38573 76.50661 22621 ft 460 kts 334°
2026-04-26 18:35 44.41498 76.48968 23074 ft 460 kts 335°
2026-04-26 18:35 44.44473 76.47289 23529 ft 460 kts 335°
2026-04-26 18:36 44.47435 76.45622 23950 ft 459 kts 335°
2026-04-26 18:36 44.50386 76.43945 24370 ft 458 kts 334°
2026-04-26 18:36 44.53332 76.42245 24798 ft 456 kts 334°
2026-04-26 18:36 44.56254 76.40534 25224 ft 455 kts 334°
2026-04-26 18:37 44.59164 76.38817 25659 ft 454 kts 334°
2026-04-26 18:37 44.62066 76.37097 26114 ft 452 kts 333°
2026-04-26 18:37 44.64968 76.35378 26571 ft 451 kts 333°
2026-04-26 18:37 44.67852 76.33672 27030 ft 450 kts 333°
2026-04-26 18:38 44.70730 76.31975 27499 ft 448 kts 333°
2026-04-26 18:38 44.73607 76.30276 27972 ft 447 kts 333°
2026-04-26 18:38 44.76465 76.28585 28448 ft 445 kts 333°
2026-04-26 18:38 44.79313 76.26898 28932 ft 444 kts 333°
2026-04-26 18:39 44.82161 76.25211 29418 ft 442 kts 333°
2026-04-26 18:39 44.84990 76.23534 29897 ft 441 kts 333°
2026-04-26 18:39 44.87810 76.21862 30345 ft 440 kts 333°
2026-04-26 18:39 44.90633 76.20186 30721 ft 439 kts 333°
2026-04-26 18:40 44.93441 76.18511 31090 ft 438 kts 333°
2026-04-26 18:40 44.96246 76.16834 31469 ft 438 kts 333°
2026-04-26 18:40 44.99059 76.15152 31843 ft 438 kts 333°
2026-04-26 18:40 45.01870 76.13478 31993 ft 440 kts 333°
2026-04-26 18:41 45.07618 76.10045 32023 ft 456 kts 332°
2026-04-26 18:41 45.13543 76.06489 32023 ft 465 kts 332°
2026-04-26 18:42 45.19511 76.02901 32018 ft 466 kts 332°
2026-04-26 18:42 45.25481 75.99303 32019 ft 466 kts 332°
2026-04-26 18:43 45.31437 75.95714 32023 ft 465 kts 332°
2026-04-26 18:43 45.37402 75.92130 32028 ft 465 kts 332°
2026-04-26 18:44 45.43352 75.88516 32039 ft 464 kts 331°
2026-04-26 18:44 45.49285 75.84901 32036 ft 464 kts 331°
2026-04-26 18:45 45.55228 75.81289 32037 ft 464 kts 331°
2026-04-26 18:45 45.61118 75.77696 32039 ft 464 kts 331°
2026-04-26 18:46 45.67047 75.74055 32034 ft 464 kts 331°
2026-04-26 18:47 45.78564 75.66986 32031 ft 464 kts 331°
2026-04-26 18:47 45.84516 75.63331 32031 ft 464 kts 330°
2026-04-26 18:48 45.90421 75.59691 32028 ft 465 kts 330°
2026-04-26 18:48 45.96368 75.56012 32036 ft 465 kts 330°
2026-04-26 18:49 46.02312 75.52326 32039 ft 466 kts 330°
2026-04-26 18:49 46.08266 75.48623 32043 ft 466 kts 330°
2026-04-26 18:50 46.14227 75.44916 32046 ft 466 kts 330°
2026-04-26 18:50 46.20186 75.41194 32036 ft 467 kts 330°
2026-04-26 18:51 46.26115 75.37490 32038 ft 467 kts 330°
2026-04-26 18:51 46.32101 75.33776 32042 ft 468 kts 330°
2026-04-26 18:52 46.38091 75.30053 32046 ft 468 kts 330°
2026-04-26 18:52 46.44082 75.26311 32055 ft 469 kts 329°
2026-04-26 18:53 46.50067 75.22562 32053 ft 469 kts 329°
2026-04-26 18:53 46.56102 75.18767 32059 ft 469 kts 329°
2026-04-26 18:54 46.62060 75.15013 32063 ft 470 kts 329°
2026-04-26 18:54 46.68062 75.11229 32070 ft 470 kts 329°
2026-04-26 18:55 46.74054 75.07439 32080 ft 470 kts 329°
2026-04-26 18:55 46.80055 75.03631 32091 ft 470 kts 329°
2026-04-26 18:56 46.86055 74.99816 32097 ft 470 kts 329°
2026-04-26 18:56 46.92103 74.96115 32104 ft 472 kts 331°
2026-04-26 18:57 46.97229 74.93314 32102 ft 474 kts 332°
2026-04-26 18:57 47.04486 74.89468 32109 ft 474 kts 332°
2026-04-26 18:58 47.10621 74.86124 32110 ft 473 kts 331°
2026-04-26 18:58 47.16804 74.82677 32118 ft 473 kts 331°
2026-04-26 18:59 47.22911 74.79258 32118 ft 473 kts 331°
2026-04-26 18:59 47.29062 74.75820 32133 ft 473 kts 331°
2026-04-26 19:00 47.35216 74.72390 32140 ft 473 kts 331°
2026-04-26 19:00 47.41371 74.68955 32141 ft 473 kts 331°
2026-04-26 19:01 47.47509 74.65507 32146 ft 472 kts 330°
2026-04-26 19:01 47.53656 74.62044 32147 ft 472 kts 330°
2026-04-26 19:02 47.59808 74.58589 32155 ft 473 kts 330°
2026-04-26 19:02 47.64920 74.55728 32160 ft 473 kts 330°
2026-04-26 19:03 47.72103 74.51683 32168 ft 472 kts 330°
2026-04-26 19:03 47.78252 74.48219 32178 ft 472 kts 330°
2026-04-26 19:04 47.84385 74.44754 32176 ft 472 kts 330°
2026-04-26 19:04 47.90528 74.41280 32180 ft 472 kts 330°
2026-04-26 19:05 47.99728 74.36046 32190 ft 472 kts 330°
2026-04-26 19:06 48.05864 74.32543 32193 ft 472 kts 330°
2026-04-26 19:06 48.11997 74.29029 32193 ft 472 kts 330°
2026-04-26 19:07 48.18129 74.25535 32194 ft 472 kts 330°
2026-04-26 19:07 48.24288 74.22064 32199 ft 473 kts 330°
2026-04-26 19:08 48.30407 74.18605 32202 ft 473 kts 330°
2026-04-26 19:08 48.36555 74.15109 32206 ft 473 kts 330°
2026-04-26 19:09 48.42712 74.11587 32214 ft 473 kts 331°
2026-04-26 19:09 48.48870 74.08053 32214 ft 474 kts 331°
2026-04-26 19:10 48.55033 74.04512 32214 ft 474 kts 331°
2026-04-26 19:10 48.61198 74.00964 32220 ft 474 kts 331°
2026-04-26 19:11 48.67356 73.97420 32222 ft 474 kts 331°
2026-04-26 19:11 48.73525 73.93858 32228 ft 474 kts 331°
2026-04-26 19:12 48.79690 73.90278 32230 ft 474 kts 331°
2026-04-26 19:12 48.85815 73.86710 32232 ft 474 kts 331°
2026-04-26 19:13 48.92013 73.83092 32233 ft 475 kts 331°
2026-04-26 19:13 48.98142 73.79511 32232 ft 475 kts 331°
2026-04-26 19:14 49.04309 73.75893 32233 ft 475 kts 331°
2026-04-26 19:14 49.10471 73.72254 32236 ft 475 kts 331°
2026-04-26 19:15 49.16620 73.68611 32234 ft 474 kts 331°
2026-04-26 19:15 49.22777 73.64950 32228 ft 474 kts 332°
2026-04-26 19:16 49.28931 73.61289 32238 ft 474 kts 332°
2026-04-26 19:16 49.35088 73.57636 32237 ft 474 kts 332°
2026-04-26 19:17 49.41235 73.53963 32239 ft 474 kts 332°
2026-04-26 19:17 49.47373 73.50275 32230 ft 473 kts 332°
2026-04-26 19:18 49.53495 73.46588 32228 ft 473 kts 332°
2026-04-26 19:18 49.59624 73.42894 32228 ft 472 kts 332°
2026-04-26 19:19 49.65724 73.39164 32223 ft 469 kts 329°
2026-04-26 19:19 49.71139 73.33887 32223 ft 454 kts 313°
2026-04-26 19:20 49.75745 73.27282 32227 ft 451 kts 310°
2026-04-26 19:20 49.80315 73.20707 32225 ft 451 kts 310°
2026-04-26 19:21 49.84945 73.14040 32207 ft 451 kts 310°
2026-04-26 19:21 49.89498 73.07440 32215 ft 451 kts 310°
2026-04-26 19:22 49.94071 73.00780 32218 ft 450 kts 310°
2026-04-26 19:22 49.98636 72.94131 32217 ft 450 kts 310°
2026-04-26 19:23 50.03204 72.87469 32223 ft 450 kts 310°
2026-04-26 19:23 50.07761 72.80796 32223 ft 449 kts 310°
2026-04-26 19:24 50.12307 72.74110 32221 ft 449 kts 310°
2026-04-26 19:24 50.19284 72.64450 32185 ft 442 kts 320°
2026-04-26 19:25 50.22886 72.61336 32193 ft 445 kts 326°
2026-04-26 19:25 50.30171 72.55609 32195 ft 438 kts 326°
2026-04-26 19:26 50.35604 72.51290 32191 ft 438 kts 326°
2026-04-26 19:26 50.41037 72.46968 32187 ft 438 kts 326°
2026-04-26 19:27 50.46460 72.42646 32194 ft 438 kts 326°
2026-04-26 19:27 50.49183 72.40470 31744 ft 441 kts 326°
2026-04-26 19:27 50.51950 72.38250 30412 ft 450 kts 326°
2026-04-26 19:28 50.54766 72.35988 28622 ft 457 kts 326°
2026-04-26 19:28 50.57601 72.33712 27199 ft 456 kts 326°
2026-04-26 19:28 50.60396 72.31485 26099 ft 447 kts 326°
2026-04-26 19:28 50.62222 72.30030 25376 ft 441 kts 326°
2026-04-26 19:29 50.64943 72.27858 24316 ft 434 kts 326°
2026-04-26 19:29 50.67606 72.25720 23192 ft 426 kts 326°
2026-04-26 19:29 50.70224 72.23610 21994 ft 420 kts 326°
2026-04-26 19:29 50.72809 72.21525 20842 ft 413 kts 326°
2026-04-26 19:30 50.75346 72.19476 19750 ft 407 kts 327°
2026-04-26 19:30 50.77848 72.17453 18708 ft 402 kts 327°
2026-04-26 19:30 50.80326 72.15449 17618 ft 397 kts 327°
2026-04-26 19:30 50.81945 72.14139 16908 ft 392 kts 327°
2026-04-26 19:31 50.85160 72.11535 15529 ft 383 kts 327°
2026-04-26 19:31 50.87517 72.09617 14513 ft 379 kts 328°
2026-04-26 19:31 50.89837 72.07729 13706 ft 368 kts 328°
2026-04-26 19:31 50.92099 72.05890 12291 ft 369 kts 328°
2026-04-26 19:32 50.94330 72.04068 11821 ft 348 kts 328°
2026-04-26 19:32 50.96399 72.02389 11608 ft 322 kts 328°
2026-04-26 19:32 50.98325 72.00828 11483 ft 299 kts 328°
2026-04-26 19:32 51.00120 71.99364 11173 ft 284 kts 328°
2026-04-26 19:33 51.01856 71.97936 10682 ft 279 kts 328°
2026-04-26 19:33 51.03565 71.96524 10166 ft 276 kts 328°
2026-04-26 19:33 51.05242 71.95136 9508 ft 275 kts 328°
2026-04-26 19:33 51.06939 71.93732 8814 ft 275 kts 329°
2026-04-26 19:34 51.08634 71.92330 8162 ft 274 kts 329°
2026-04-26 19:34 51.10328 71.90933 7516 ft 273 kts 330°
2026-04-26 19:34 51.12009 71.89551 6891 ft 271 kts 330°
2026-04-26 19:34 51.13638 71.88164 6567 ft 257 kts 325°
2026-04-26 19:35 51.14989 71.86489 6434 ft 236 kts 314°
2026-04-26 19:35 51.16108 71.84703 6299 ft 219 kts 313°
2026-04-26 19:35 51.17146 71.83046 6181 ft 201 kts 313°
2026-04-26 19:35 51.18111 71.81509 5854 ft 193 kts 313°
2026-04-26 19:36 51.19076 71.79966 5287 ft 197 kts 313°
2026-04-26 19:36 51.19649 71.78968 5222 ft 182 kts 303°
2026-04-26 19:36 51.20138 71.76851 5074 ft 149 kts 276°
2026-04-26 19:36 51.20041 71.75300 4894 ft 136 kts 257°
2026-04-26 19:37 51.19502 71.74057 4579 ft 138 kts 231°
2026-04-26 19:37 51.18873 71.72911 4228 ft 137 kts 235°
2026-04-26 19:37 51.18239 71.71811 3894 ft 136 kts 233°
2026-04-26 19:37 51.17588 71.70735 3816 ft 135 kts 233°
2026-04-26 19:38 51.16921 71.69658 3807 ft 137 kts 232°
2026-04-26 19:38 51.16245 71.68580 3807 ft 137 kts 232°
2026-04-26 19:38 51.15573 71.67515 3805 ft 136 kts 232°
2026-04-26 19:38 51.14898 71.66449 3806 ft 137 kts 232°
2026-04-26 19:39 51.14225 71.65389 3805 ft 137 kts 232°
2026-04-26 19:39 51.13546 71.64320 3806 ft 137 kts 231°
2026-04-26 19:39 51.12865 71.63249 3766 ft 138 kts 231°
2026-04-26 19:39 51.12193 71.62191 3662 ft 137 kts 232°
2026-04-26 19:40 51.11509 71.61117 3508 ft 137 kts 232°
2026-04-26 19:40 51.10831 71.60052 3334 ft 136 kts 232°
2026-04-26 19:40 51.10163 71.59004 3154 ft 135 kts 232°
2026-04-26 19:40 51.09495 71.57956 2971 ft 134 kts 232°
2026-04-26 19:41 51.08831 71.56915 2790 ft 133 kts 232°
2026-04-26 19:41 51.08175 71.55896 2627 ft 131 kts 231°
2026-04-26 19:41 51.07501 71.54909 2457 ft 132 kts 230°
2026-04-26 19:41 51.07065 71.54240 2365 ft 131 kts 231°
2026-04-26 19:42 51.06213 71.52838 2139 ft 133 kts 231°
2026-04-26 19:42 51.05564 71.51772 1854 ft 135 kts 227°
2026-04-26 19:42 51.04881 71.50734 1673 ft 137 kts 225°
2026-04-26 19:42 51.04197 71.49670 1446 ft 136 kts 227°
2026-04-26 19:43 51.03521 71.48606 1269 ft 136 kts 225°
2026-04-26 19:43 51.02898 71.47612 1167 ft 114 kts 226°
2026-04-26 19:43 51.02478 71.46965 1165 ft 66 kts 225°
2026-04-26 19:43 51.02186 71.46491 1165 ft 49 kts 224°
2026-04-26 19:44 51.01967 71.46152 1166 ft 40 kts 225°
2026-04-26 19:44 51.01790 71.45870 1166 ft 31 kts 225°
2026-04-26 19:44 51.01701 71.45666 1166 ft 10 kts 290°
2026-04-26 19:44 51.01755 71.45562 1164 ft 14 kts 316°
2026-04-26 19:45 51.01763 71.45549 1163 ft 0 kts 316°
2026-04-26 19:45 51.01766 71.45545 1163 ft 2 kts 316°
2026-04-26 19:45 51.01804 71.45502 1163 ft 11 kts 346°
2026-04-26 19:46 51.01891 71.45586 1164 ft 19 kts 43°
2026-04-26 19:46 51.02006 71.45770 1164 ft 28 kts 42°
2026-04-26 19:46 51.02163 71.46013 1164 ft 35 kts 44°
2026-04-26 19:46 51.02326 71.46242 1164 ft 11 kts
2026-04-26 19:47 51.02401 71.46160 1164 ft 15 kts 314°
2026-04-26 19:47 51.02453 71.46076 1163 ft 17 kts 314°
2026-04-26 19:47 51.02560 71.45938 1163 ft 13 kts 358°
2026-04-26 19:47 51.02621 71.45987 1161 ft 7 kts 28°
2026-04-26 19:48 51.02629 71.45993 1162 ft 0 kts 27°